This is the latest recevied weather packets stored in our database for station/object LA9UTA-13. If no packets are shown the sender has not sent any weather packets the latest 10 day(s).
| Time | Temp. | Humidity | Pressure | Rain* | Wind** | Luminosity | Snow |
|---|---|---|---|---|---|---|---|
| 1777945576 | 1.11° C | 59% | 1008 hPa | 0 mm | - | 0 W/m² | - |
| 1777945082 | 1.11° C | 59% | 1008 hPa | 0 mm | - | 0 W/m² | - |
| 1777943882 | 1.11° C | 59% | 1008 hPa | 0 mm | - | 0 W/m² | - |
| 1777942682 | 0.56° C | 63% | 1008.2 hPa | 0 mm | - | 0 W/m² | - |
| 1777941483 | 1.67° C | 59% | 1008 hPa | 0 mm | - | 0 W/m² | - |
| 1777939082 | 2.22° C | 59% | 1007.9 hPa | 0 mm | - | 0 W/m² | - |
| 1777937882 | 2.22° C | 60% | 1007.9 hPa | 0 mm | - | 0 W/m² | - |
| 1777936682 | 2.22° C | 67% | 1007.9 hPa | 0 mm | - | 0 W/m² | - |
| 1777935482 | 3.33° C | 66% | 1006.8 hPa | 0 mm | - | 0 W/m² | - |
| 1777934744 | 2.78° C | 69% | 1006.8 hPa | 0 mm | - | 0 W/m² | - |
| 1777934282 | 2.78° C | 69% | 1006.8 hPa | 0 mm | - | 0 W/m² | - |
| 1777933839 | 3.33° C | 68% | 1006.8 hPa | 0 mm | - | 0 W/m² | - |
| 1777933082 | 3.33° C | 68% | 1006.8 hPa | 0 mm | - | 0 W/m² | - |
| 1777931882 | 3.33° C | 70% | 1006.8 hPa | 0 mm | - | 0 W/m² | - |
| 1777930682 | 3.33° C | 75% | 1006.8 hPa | 0 mm | - | 0 W/m² | - |
| 1777930229 | 3.33° C | 78% | 1006.8 hPa | 0 mm | - | 0 W/m² | - |
| 1777929482 | 3.33° C | 78% | 1006.8 hPa | 0 mm | - | 0 W/m² | - |
| 1777929331 | 3.89° C | 75% | 1006.7 hPa | 0 mm | - | 0 W/m² | - |
| 1777928281 | 3.89° C | 76% | 1006.8 hPa | 0 mm | - | 0 W/m² | - |
| 1777927082 | 3.89° C | 75% | 1006.7 hPa | 0 mm | - | 0 W/m² | - |
| 1777925882 | 4.44° C | 77% | 1005.7 hPa | 0 mm | - | 0 W/m² | - |
| 1777924682 | 4.44° C | 78% | 1005.7 hPa | 0 mm | - | 0 W/m² | - |
| 1777923481 | 4.44° C | 81% | 1005.7 hPa | 0 mm | - | 1 W/m² | - |
| 1777922281 | 5° C | 81% | 1004.6 hPa | 0 mm | - | 4 W/m² | - |
| 1777921082 | 5.56° C | 80% | 1004.6 hPa | 0 mm | - | 16 W/m² | - |
* Rain latest hour (hover to see other rain measurements)
** Current wind speed in m/s (hover to see current wind gust speed)